Regional Weather Roundup
Issued by NWS

Home | Current Version | Previous Version | Text Only | Print | Product List | Glossary On
Versions: 1 2 3 4 5 6 7 8 9 10 11 12 13 14 15 16 17 18 19 20 21 22 23 24 25 26 27 28 29 30 31 32 33 34 35 36 37 38 39 40 41 42 43 44 45 46 47 48 49 50
000
ASUS43 KOAX 271310
RWRNE

WEATHER ROUNDUP FOR NEBRASKA
NATIONAL WEATHER SERVICE OMAHA NE
800 AM CDT WED JUL 27 2016

NOTES: SATELLITE DATA IS BEING USED TO AUGMENT CLOUD COVER ABOVE
       12000 FEET.
       "FAIR" INDICATES FEW OR NO CLOUDS BELOW 12,000 FEET WITH NO
       SIGNIFICANT WEATHER AND/OR OBSTRUCTIONS TO VISIBILITY.

  * THESE STATIONS DO NOT REPORT WEATHER SUCH AS RAIN...SNOW OR FOG.

NEZ001>004-019>022-054>056-271400-
NEBRASKA PANHANDLE

CITY           SKY/WX    TMP DP  RH WIND       PRES   REMARKS
SCOTTSBLUFF    LGT RAIN  64  59  83 NW8       30.24R
ALLIANCE       CLOUDY    62  58  86 SW7       30.18R
CHADRON        LGT RAIN  66  62  87 W18G26    30.22R FOG
KIMBALL        CLOUDY    60  60  99 E3        30.21R
SIDNEY         CLOUDY    60  57  89 E10       30.19R
$$

NEZ057>060-069>072-079>082-271400-
SOUTHWEST NEBRASKA

CITY           SKY/WX    TMP DP  RH WIND       PRES   REMARKS
NORTH PLATTE   CLOUDY    63  60  90 SW12      30.06F
IMPERIAL       MOSUNNY   63  58  83 N8        30.13S
LEXINGTON      SUNNY     64  61  90 W7        30.06S
MCCOOK         SUNNY     64  59  83 NW6       30.08S
OGALLALA       CLOUDY    65  60  83 CALM      30.12F
$$

NEZ005>010-023>029-035>040-094-271400-
NORTH CENTRAL NEBRASKA

CITY           SKY/WX    TMP DP  RH WIND       PRES   REMARKS
VALENTINE      CLOUDY    63  58  83 MISG      30.05F
AINSWORTH      CLOUDY    63  61  94 W7        30.06S
BROKEN BOW     SUNNY     64  60  87 CALM      30.05R
O`NEILL        SUNNY     66  61  85 NW5       30.07R
ORD            SUNNY     64  59  83 NW9       30.01R
THEDFORD       CLOUDY    64  61  91 CALM      30.07S
$$

NEZ041-046>049-061>064-073>077-083>087-271400-
SOUTH CENTRAL NEBRASKA

CITY           SKY/WX    TMP DP  RH WIND       PRES   REMARKS
GRAND ISLAND   SUNNY     68  61  78 W14       30.00R
AURORA         MOSUNNY   67  63  86 SW10      29.99R
HASTINGS       CLOUDY    64  61  90 W7        30.04R
HEBRON         MOSUNNY   71  66  84 W3        29.99R
HOLDREGE       MOSUNNY   63  61  92 NW5       30.06R
KEARNEY *      SUNNY     64   9  11 NW9       30.04R
YORK           MOSUNNY   68  63  83 NW8       30.02R
$$

NEZ011>018-030>034-042>045-271400-
NORTHEAST NEBRASKA

CITY           SKY/WX    TMP DP  RH WIND       PRES   REMARKS
NORFOLK        CLOUDY    69  66  90 N8        30.00R
ALBION         SUNNY     66  64  93 NW13      30.03R
BLAIR          CLOUDY    73  67  82 CALM      29.97R
FREMONT        PTSUNNY   71  67  85 NW3       29.99R
TEKAMAH        PTSUNNY   71  67  87 CALM      29.97R
WAYNE          CLOUDY    69  67  94 N5        30.00R
$$

NEZ050>053-065>068-078-088>093-271400-
SOUTHEAST NEBRASKA

CITY           SKY/WX    TMP DP  RH WIND       PRES   REMARKS
LINCOLN        CLOUDY    75  67  76 S7        29.96R
OMAHA EPPLEY   CLOUDY    74  66  76 VRB5      29.96R
BEATRICE       SUNNY     72  66  82 S5        29.96R
FALLS CITY     CLOUDY    71  68  90 SE7       29.95F
NEBRASKA CITY  SUNNY     72  71  99 S6        29.96S
PLATTSMOUTH    SUNNY     72  69  91 S7        29.95R
$$

NEZ044-045-051>053-067-271400-
OMAHA AREA

CITY           SKY/WX    TMP DP  RH WIND       PRES   REMARKS
OMAHA EPPLEY   CLOUDY    74  66  76 VRB5      29.96R
BLAIR          CLOUDY    73  67  82 CALM      29.97R
FREMONT        PTSUNNY   71  67  85 NW3       29.99R
MILLARD        CLOUDY    72  68  86 CALM      29.95R
OFFUTT AFB     MOSUNNY   73  69  88 SE7       29.95R
PLATTSMOUTH    SUNNY     72  69  91 S7        29.95R
WAHOO          FAIR      71  67  89 NW6       29.98R
$$




USA.gov is the U.S. government's official web portal to all federal, state and local government web resources and services.